Weather History for Ottumwa, IA

Change the Weather History Date:

Tuesday, February 14, 2012

  Actual Average Record
Temperature  
Mean Temperature 35 °F 26 °F  
Max Temperature 39 °F 36 °F 69 °F (1954)
Min Temperature 30 °F 17 °F -6 °F (1936)
Degree Days  
Heating Degree Days 30 38  
Month to date heating degree days 508 562  
Since 1 July heating degree days 3787 4384  
Cooling Degree Days 0 0  
Month to date cooling degree days 0 0  
Year to date cooling degree days 0 0  
Moisture  
Dew Point 30 °F    
Average Humidity 88    
Maximum Humidity 100    
Minimum Humidity 76    
Precipitation  
Precipitation 0.00 in 0.04 in 0.66 in (2003)
Month to date precipitation 0.49 0.50  
Year to date precipitation 0.74 1.40  
Sea Level Pressure  
Sea Level Pressure 29.85 in    
Wind  
Wind Speed 8 mph (SW)    
Max Wind Speed 16 mph    
Max Gust Speed 20 mph    
Visibility 8 miles    
Events      
T = Trace of Precipitation, MM = Missing Value Source: NWS Daily Summary

Daily Weather History Graph

Daily Weather History Graph

Search for Another Location

Airport:

Trip Planner

Search our weather history database for the weather conditions in past years. The results will help you decide how hot, cold, wet, or windy it might be!

Date:

Astronomy

Feb. 14, 2012 Rise Set
Actual Time 7:06 AM CST 5:42 PM CST
Civil Twilight 6:37 AM CST 6:10 PM CST
Nautical Twilight 6:05 AM CST 6:42 PM CST
Astronomical Twilight 5:33 AM CST 7:14 PM CST
Moon 12:53 AM CST (2/14) 10:46 AM CST (2/14)
Length of Visible Light 11h 32m
Length of Day
10h 36m
Waning Gibbous, 50% of the Moon is Illuminated
Feb 14
Waning Gibbous
Feb 21
New
Feb 29
First Quarter
Mar 8
Full
Mar 14
Last Quarter

Hourly Weather History & Observations

Time (CST) Temp. Windchill Dew Point Humidity Pressure Visibility Wind Dir Wind Speed Gust Speed Precip Events Conditions
12:49 AM 30.2 °F 24.3 °F 30.2 °F 100% 29.77 in 6.0 mi South 5.8 mph - N/A   Overcast
12:53 AM 30.9 °F 25.2 °F 30.0 °F 96% 29.80 in 6.0 mi South 5.8 mph - N/A   Overcast
1:53 AM 30.0 °F 25.2 °F 30.0 °F 100% 29.80 in 7.0 mi South 4.6 mph - N/A   Overcast
2:53 AM 30.0 °F 24.1 °F 30.0 °F 100% 29.80 in 6.0 mi SSW 5.8 mph - N/A   Overcast
3:05 AM 30.2 °F 25.4 °F 30.2 °F 100% 29.77 in 6.0 mi SSW 4.6 mph - N/A   Overcast
3:15 AM 30.2 °F 26.7 °F 30.2 °F 100% 29.77 in 6.0 mi SSW 3.5 mph - N/A   Overcast
3:53 AM 30.0 °F 26.5 °F 30.0 °F 100% 29.81 in 6.0 mi SW 3.5 mph - N/A   Overcast
4:53 AM 30.9 °F 26.2 °F 30.0 °F 96% 29.82 in 7.0 mi SW 4.6 mph - N/A   Overcast
5:13 AM 30.2 °F 25.4 °F 30.2 °F 100% 29.80 in 6.0 mi SW 4.6 mph - N/A   Overcast
5:53 AM 30.9 °F 26.2 °F 30.0 °F 96% 29.83 in 6.0 mi SW 4.6 mph - N/A   Overcast
6:17 AM 32.0 °F 26.4 °F 30.2 °F 93% 29.81 in 6.0 mi WSW 5.8 mph - N/A   Overcast
6:30 AM 30.2 °F 25.4 °F 30.2 °F 100% 29.81 in 5.0 mi SW 4.6 mph - N/A   Overcast
6:38 AM 30.2 °F 25.4 °F 30.2 °F 100% 29.81 in 5.0 mi WSW 4.6 mph - N/A   Overcast
6:53 AM 32.0 °F 27.5 °F 30.0 °F 92% 29.84 in 6.0 mi WSW 4.6 mph - N/A   Overcast
7:53 AM 32.0 °F 27.5 °F 28.9 °F 88% 29.86 in 7.0 mi West 4.6 mph - N/A   Overcast
8:53 AM 32.0 °F 26.4 °F 30.0 °F 92% 29.88 in 6.0 mi SW 5.8 mph - N/A   Overcast
9:53 AM 33.1 °F 27.7 °F 28.9 °F 85% 29.89 in 10.0 mi WSW 5.8 mph - N/A   Overcast
10:53 AM 32.0 °F 24.8 °F 28.0 °F 85% 29.90 in 10.0 mi WSW 8.1 mph - N/A   Overcast
11:05 AM 32.0 °F 24.2 °F 26.6 °F 80% 29.87 in 10.0 mi SW 9.2 mph - N/A   Overcast
11:53 AM 32.0 °F 23.6 °F 28.0 °F 85% 29.89 in 10.0 mi SW 10.4 mph - N/A   Overcast
12:53 PM 33.1 °F 26.1 °F 28.0 °F 82% 29.87 in 10.0 mi SSW 8.1 mph - N/A   Overcast
1:53 PM 36.0 °F 29.0 °F 30.0 °F 79% 29.86 in 10.0 mi SSW 9.2 mph - N/A   Mostly Cloudy
2:27 PM 35.6 °F 27.1 °F 30.2 °F 81% 29.85 in 10.0 mi SW 12.7 mph - N/A   Scattered Clouds
2:53 PM 37.0 °F 28.9 °F 30.0 °F 76% 29.88 in 10.0 mi SW 12.7 mph - N/A   Mostly Cloudy
3:02 PM 35.6 °F 27.5 °F 30.2 °F 81% 29.85 in 10.0 mi SW 11.5 mph - N/A   Scattered Clouds
3:53 PM 37.9 °F 30.5 °F 30.9 °F 76% 29.88 in 10.0 mi SSW 11.5 mph - N/A   Clear
4:53 PM 37.9 °F 32.1 °F 30.9 °F 76% 29.88 in 10.0 mi SSW 8.1 mph - N/A   Clear
5:53 PM 35.1 °F 29.3 °F 30.0 °F 82% 29.89 in 10.0 mi South 6.9 mph - N/A   Clear
6:53 PM 35.1 °F 26.9 °F 30.0 °F 82% 29.89 in 10.0 mi South 11.5 mph - N/A   Mostly Cloudy
7:53 PM 35.1 °F 25.9 °F 30.0 °F 82% 29.91 in 10.0 mi South 13.8 mph - N/A   Scattered Clouds
8:53 PM 34.0 °F 25.0 °F 30.0 °F 85% 29.91 in 10.0 mi South 12.7 mph - N/A   Mostly Cloudy
9:53 PM 34.0 °F 26.0 °F 30.0 °F 85% 29.93 in 9.0 mi SSW 10.4 mph - N/A   Overcast
10:53 PM 33.1 °F 24.9 °F 30.0 °F 89% 29.94 in 9.0 mi South 10.4 mph - N/A   Overcast
11:53 PM 33.1 °F 25.5 °F 30.0 °F 89% 29.94 in 8.0 mi South 9.2 mph - N/A   Overcast